Wenatchee, WA
on Tuesday, December 25, 2012

Tuesday
Previous Day Next Day
Daily Summary
 ActualAverageRecord
Temperature
Mean Temperature °F 25°F  
Max Temperature 34°F 30°F 50°F (1963)
Min Temperature 27°F 19°F 4°F (1983)
Degree Days
Heating Degree Days 34 40  
Month to date heating degree days 806 977  
Since 1 July heating degree days 2421 2859  
Cooling Degree Days 0 0  
Month to date cooling degree days 0 0  
Year to date cooling degree days 294 249  
Moisture
Dew Point 27°F   
Average Humidity 90    
Maximum Humidity 96    
Minimum Humidity 82    
Precipitation
Precipitation 0.08 in 0.08 in 0.42 in (1980)
Month to date precipitation 2.60 2.06  
Year to date precipitation 23.14 16.61  
Snow
Snow 0.80 in 0.70 in in ()
Month to date snowfall 21.7 13.2  
Since 1 July snowfall 28.9 21.1  
Snow Depth 6.00 in   
Wind
Wind Speed 1 mph   
Max Wind Speed 4 mph   
Max Gust Speed mph   
Visibility 3 miles   
Events Fog , Snow   

Key: T is trace of precipitation, MM is missing value
Source: NWS Daily Summary
Time(PST)TemperatureDew PointHumidity Pressure Visibility Wind DirectionWind SpeedGust SpeedPrecipitationEvents Conditions
12:45 AM 26.6°F 24.8°F 93% 30.14 in 0.2 miles ENE 3.5 mph - N/A Fog Light Freezing Fog
12:55 AM 27.0°F 24.1°F 89% 30.17 in 0.2 miles Calm Calm - N/A Fog Light Freezing Fog
1:55 AM 28.0°F 25.0°F 88% 30.15 in 0.2 miles Calm Calm - N/A Fog Light Freezing Fog
2:27 AM 28.4°F 24.8°F 86% 30.12 in 0.2 miles Calm Calm - N/A Fog Light Freezing Fog
2:55 AM 28.0°F 24.1°F 85% 30.15 in 0.2 miles ENE 3.5 mph - N/A Fog Light Freezing Fog
3:55 AM 28.0°F 25.0°F 88% 30.13 in 0.2 miles Calm Calm - N/A Fog Light Freezing Fog
4:32 AM 28.4°F 24.8°F 86% 30.07 in 0.2 miles Calm Calm - N/A Fog Light Freezing Fog
4:44 AM 28.4°F 26.6°F 93% 30.06 in 0.2 miles Calm Calm - N/A Fog Light Freezing Fog
4:55 AM 28.9°F 24.1°F 82% 30.10 in 0.2 miles Calm Calm - N/A   Haze
5:55 AM 28.9°F 25.0°F 85% 30.08 in 0.2 miles Calm Calm - N/A Fog Light Freezing Fog
6:55 AM 28.9°F 25.0°F 85% 30.06 in 0.2 miles Calm Calm - N/A Fog Light Freezing Fog
7:08 AM 28.4°F 24.8°F 86% 30.01 in 0.2 miles Calm Calm - N/A Fog Light Freezing Fog
7:19 AM 28.4°F 24.8°F 86% 30.01 in 0.5 miles Calm Calm - N/A Fog Light Freezing Fog
7:27 AM 28.4°F 24.8°F 86% 30.01 in 1.0 miles Calm Calm - N/A   Overcast
7:40 AM 28.4°F 24.8°F 86% 30.01 in 3.0 miles Calm Calm - N/A   Overcast
7:55 AM 28.9°F 25.0°F 85% 30.05 in 5.0 miles Calm Calm - N/A   Overcast
8:12 AM 28.4°F 24.8°F 86% 29.99 in 6.0 miles Calm Calm - 0.00 in   Overcast
8:55 AM 28.9°F 25.0°F 85% 30.04 in 10.0 miles Calm Calm - 0.00 in   Overcast
9:55 AM 30.0°F 26.1°F 85% 30.01 in 5.0 miles Calm Calm - N/A   Overcast
10:08 AM 30.2°F 26.6°F 86% 29.96 in 6.0 miles Calm Calm - N/A   Overcast
10:51 AM 30.2°F 26.6°F 86% 29.94 in 5.0 miles Calm Calm - N/A   Overcast
10:55 AM 30.9°F 26.1°F 82% 29.98 in 5.0 miles Calm Calm - N/A   Haze
11:33 AM 30.2°F 26.6°F 86% 29.91 in 1.8 miles Calm Calm - 0.00 in Snow Light Snow
11:55 AM 30.0°F 27.0°F 88% 29.94 in 1.2 miles Calm Calm - 0.00 in Snow Light Snow
12:11 PM 30.2°F 26.6°F 86% 29.88 in 0.8 miles Calm Calm - 0.01 in Snow Light Snow
12:18 PM 30.2°F 28.4°F 93% 29.88 in 0.8 miles Calm Calm - 0.01 in Snow Light Snow
12:42 PM 30.2°F 28.4°F 93% 29.87 in 0.8 miles Calm Calm - 0.02 in Snow Light Snow
12:55 PM 30.9°F 28.0°F 89% 29.91 in 0.8 miles Calm Calm - 0.03 in Snow Light Snow
1:35 PM 30.2°F 28.4°F 93% 29.87 in 1.0 miles Calm Calm - 0.01 in Snow Light Snow
1:55 PM 30.9°F 28.0°F 89% 29.89 in 1.0 miles Calm Calm - 0.02 in Snow Light Snow
2:01 PM 30.2°F 28.4°F 93% 29.85 in 0.8 miles Calm Calm - 0.00 in Snow Light Snow
2:18 PM 30.2°F 28.4°F 93% 29.85 in 0.8 miles Calm Calm - 0.01 in Snow Light Snow
2:46 PM 30.2°F 28.4°F 93% 29.85 in 0.8 miles Calm Calm - 0.02 in Snow Light Snow
2:55 PM 30.0°F 28.9°F 96% 29.88 in 0.8 miles Calm Calm - 0.03 in Snow Light Snow
2:59 PM 30.2°F 28.4°F 93% 29.85 in 1.0 miles Calm Calm - 0.00 in Snow Light Snow
3:30 PM 30.2°F 28.4°F 93% 29.84 in 1.0 miles Calm Calm - 0.01 in Snow Light Snow
3:55 PM 30.0°F 28.0°F 92% 29.88 in 1.5 miles Calm Calm - 0.01 in Snow Light Snow
4:14 PM 30.2°F 28.4°F 93% 29.84 in 2.5 miles Calm Calm - 0.00 in Snow Light Snow
4:55 PM 30.0°F 28.0°F 92% 29.88 in 1.0 miles Calm Calm - 0.00 in Snow Light Snow
5:19 PM 30.2°F 28.4°F 93% 29.84 in 2.5 miles Calm Calm - 0.00 in Snow Light Snow
5:26 PM 30.2°F 28.4°F 93% 29.84 in 3.0 miles Calm Calm - 0.00 in Snow Light Snow
5:55 PM 30.0°F 28.0°F 92% 29.88 in 7.0 miles Calm Calm - 0.00 in   Overcast
6:55 PM 30.0°F 28.9°F 96% 29.88 in 8.0 miles Calm Calm - N/A   Overcast
7:05 PM 30.2°F 28.4°F 93% 29.83 in 6.0 miles Calm Calm - N/A   Overcast
7:55 PM 30.0°F 28.0°F 92% 29.86 in 10.0 miles Calm Calm - N/A   Overcast
8:55 PM 30.0°F 28.0°F 92% 29.87 in 10.0 miles Calm Calm - N/A   Overcast
9:55 PM 30.0°F 28.0°F 92% 29.86 in 9.0 miles WSW 3.5 mph - N/A   Overcast
10:27 PM 30.2°F 28.4°F 93% 29.83 in 4.0 miles NNW 3.5 mph - N/A   Overcast
10:55 PM 30.0°F 28.0°F 92% 29.86 in 5.0 miles NW 3.5 mph - N/A   Overcast
11:19 PM 30.2°F 28.4°F 93% 29.83 in 6.0 miles WNW 3.5 mph - N/A   Overcast
11:55 PM 30.0°F 28.0°F 92% 29.87 in 8.0 miles NW 3.5 mph - N/A   Overcast
Moon Phase
Dec. 25 Dec. 28 Jan. 04 Jan. 11 Jan. 18
Sunrise:07:47 AM (PST) Moon Rise:02:29 PM (PST)
Sunset:04:15 PM (PST) Moon Set:05:20 AM (PST)

Copyright © 2014 The Weather Underground, Inc.